GEFSCGP_850_meantemp_330.txt.gz
Temperature
30 31 31 31 32 31 31 31 31 31 31 30 30 30 29 28 27 27 26 26 25 24 23 22 21 21 20 20 19 19 19 19 19 18 18 18 18 18 18 18 18 18 18 17
31 31 31 32 31 31 31 31 31 31 30 30 30 30 30 29 28 27 27 26 25 25 24 22 21 21 20 20 20 20 19 19 19 19 19 18 18 18 18 18 18 18 18 18
31 31 31 31 31 31 31 31 31 30 30 30 30 30 29 29 28 27 27 26 26 25 24 23 22 21 21 20 20 20 19 19 19 19 19 18 18 19 18 18 18 18 18 18
31 31 31 31 31 31 31 31 31 31 30 31 30 30 30 29 29 28 27 27 26 25 24 23 22 21 21 21 20 20 20 20 19 19 19 19 19 19 18 18 18 18 18 18
31 30 30 31 31 31 31 31 31 31 31 31 31 30 30 30 29 29 28 27 26 25 24 24 23 22 21 21 20 20 20 20 20 19 19 19 19 19 18 18 18 18 18 18
31 31 31 31 31 31 31 31 31 31 31 30 30 30 29 30 29 29 28 27 26 25 25 24 23 22 21 21 21 20 20 20 20 20 19 19 19 18 18 18 18 19 18 18
30 30 30 30 30 30 31 31 30 30 30 30 30 30 29 29 29 29 28 27 26 25 25 24 23 22 21 21 21 21 20 20 20 20 20 19 19 19 19 19 18 18 18 18
30 30 30 30 30 30 31 31 30 29 30 30 30 29 30 29 28 28 27 27 26 26 25 24 23 22 22 21 21 21 21 20 20 20 20 19 19 19 19 19 18 18 18 18
30 30 30 30 30 30 30 31 32 31 30 30 30 29 29 29 28 28 27 26 26 25 25 24 23 22 22 21 21 21 21 21 20 20 20 20 19 19 19 19 19 18 18 18
31 29 30 30 30 30 30 31 31 30 29 29 29 30 30 28 28 28 27 27 26 25 24 24 23 22 22 22 21 21 21 20 20 20 19 19 19 19 19 19 18 18 18 18
31 30 30 30 30 30 30 30 30 31 30 30 29 29 30 29 28 28 27 26 25 25 24 23 23 22 22 21 21 21 20 20 20 20 19 19 19 19 18 18 18 18 18 18
30 30 30 30 30 30 30 30 30 30 29 29 30 29 29 29 28 27 27 25 25 24 24 23 22 22 21 21 21 21 20 20 19 19 19 19 18 18 18 18 18 17 17 17
29 29 28 29 29 29 29 30 30 30 30 30 29 29 29 28 28 27 26 25 24 23 23 23 22 21 21 21 21 20 20 20 19 19 19 19 18 18 18 18 17 17 17 17
28 29 29 29 29 30 29 29 29 30 30 30 29 29 28 28 27 26 25 24 24 23 22 22 21 21 20 20 20 20 20 19 19 19 18 18 18 18 18 17 17 17 17 17
29 28 29 29 29 30 29 29 29 29 30 30 29 29 29 28 27 26 25 24 23 23 22 21 21 21 20 20 20 19 19 19 19 18 18 18 18 17 17 17 17 17 17 17
28 28 28 28 29 29 29 29 29 29 29 29 29 29 29 27 26 25 24 24 23 22 22 21 21 20 20 20 19 19 19 19 18 18 18 18 17 17 17 17 17 17 16 16
28 27 27 28 28 28 28 28 29 29 29 29 29 28 27 27 26 25 24 23 22 22 21 21 20 20 19 19 19 19 19 19 18 18 18 17 17 17 17 17 17 17 16 16
26 26 27 28 27 26 28 28 28 28 28 28 28 28 27 26 25 24 23 22 22 21 21 20 20 19 19 19 19 19 18 18 18 18 17 17 17 17 17 17 16 16 16 16
26 26 27 27 27 27 27 27 27 27 27 27 27 27 26 25 25 24 22 21 21 20 20 19 19 19 19 19 18 18 18 18 18 17 17 17 17 17 17 16 16 16 16 15
25 25 27 27 26 27 27 27 26 26 26 26 25 25 25 25 26 25 21 20 20 19 19 18 19 19 18 18 18 18 17 17 17 17 17 16 17 16 16 16 16 16 15 15
25 25 26 26 26 27 26 25 25 26 25 24 24 24 24 24 24 22 20 19 19 18 18 18 18 18 18 18 18 17 17 17 17 17 17 16 16 16 16 16 15 15 15 15
26 26 25 26 26 26 24 25 25 24 22 23 23 23 22 22 21 20 19 19 18 18 18 18 17 17 17 17 17 17 17 17 17 17 16 16 16 16 16 15 15 15 15 14
25 25 26 25 25 23 23 23 22 21 22 22 22 21 21 20 20 19 19 18 18 17 17 17 17 17 17 17 17 17 17 17 17 16 16 16 15 15 15 15 15 15 14 14
23 22 24 23 24 23 22 21 21 20 21 21 20 20 20 20 19 18 18 18 17 17 17 17 17 17 16 16 16 16 16 16 16 16 16 15 15 15 15 15 14 14 14 14
23 22 23 23 23 22 21 21 20 20 20 20 20 19 19 19 18 18 17 17 17 17 16 16 16 16 16 16 16 16 15 15 15 15 15 15 15 15 14 14 14 14 14 14
22 22 23 23 22 22 21 20 20 20 19 19 19 19 18 18 18 17 17 16 16 16 16 16 16 16 15 15 15 15 15 15 15 15 15 15 15 14 14 14 14 14 13 13

GEFSCGP_850_meantemp_336.txt.gz
Temperature
32 32 31 32 33 33 33 33 32 32 33 32 31 30 31 30 30 29 29 28 27 26 25 24 24 23 22 21 21 20 20 20 20 20 20 20 19 19 19 19 19 19 19 19
32 32 33 33 34 33 33 33 32 33 33 33 31 30 31 30 30 30 29 28 27 27 25 25 24 23 22 21 21 20 20 20 20 20 20 20 20 20 19 19 19 19 19 19
31 33 34 33 33 33 33 32 32 33 33 33 32 30 29 30 30 30 30 29 28 27 26 25 24 23 23 22 21 21 20 20 20 20 20 20 20 20 19 19 19 19 19 19
32 34 34 33 33 33 32 33 33 33 32 31 31 28 28 28 29 30 29 29 29 28 26 25 24 23 23 22 21 21 21 20 20 20 20 20 20 19 19 19 19 19 19 19
32 33 33 33 33 33 33 34 33 32 31 30 30 29 28 29 28 29 30 29 29 28 27 26 25 24 23 22 21 21 21 21 20 20 20 20 20 19 19 19 19 19 19 19
32 33 34 33 34 34 34 33 32 32 31 29 30 30 29 29 29 29 29 29 29 28 27 26 25 24 23 22 22 21 21 21 20 20 20 20 20 20 19 19 19 19 19 19
32 33 34 34 33 34 34 31 30 29 29 30 31 30 29 30 31 30 30 29 29 28 27 26 25 24 24 23 22 21 21 21 21 20 20 20 20 19 19 19 19 19 19 19
31 31 33 34 33 33 33 32 29 29 29 30 31 30 30 31 31 31 30 29 29 28 27 26 25 24 24 23 22 22 21 21 21 20 20 20 20 19 19 19 19 19 19 19
31 31 33 34 34 34 32 31 32 30 29 29 29 29 30 30 31 31 30 29 29 28 27 26 25 25 24 23 23 22 21 21 21 20 20 20 20 19 19 19 19 19 19 19
31 31 32 33 34 33 33 32 32 30 29 28 29 28 28 29 30 31 30 29 29 28 27 26 26 25 24 24 23 22 22 21 21 20 20 20 19 19 19 19 19 18 18 18
32 31 31 32 32 32 32 32 31 30 30 29 28 28 30 30 30 30 30 29 28 28 27 26 25 25 24 24 23 22 22 21 21 20 20 19 19 19 19 19 18 18 18 18
31 31 30 31 33 33 33 32 31 30 29 29 28 28 31 30 30 31 30 29 28 27 27 26 25 25 24 23 23 22 22 21 20 20 20 19 19 19 18 18 18 18 18 17
31 30 29 30 31 32 31 32 32 32 30 29 28 28 30 30 30 30 29 28 27 26 26 26 25 24 24 23 23 22 21 21 20 20 19 19 19 18 18 18 18 18 17 17
31 30 29 28 29 30 30 31 32 31 30 29 28 28 28 29 29 30 29 28 27 26 26 25 24 24 23 22 22 22 21 21 20 20 19 19 18 18 18 18 18 17 17 17
31 29 29 29 30 30 30 31 31 31 31 29 27 27 28 29 29 29 28 27 27 26 25 24 23 23 22 22 21 21 21 20 20 19 19 19 18 18 18 18 17 17 17 17
31 29 29 29 30 30 30 31 31 31 31 30 29 28 29 29 29 28 28 27 26 25 24 23 23 22 22 21 21 21 20 20 19 19 19 18 18 18 18 18 17 17 17 16
30 28 28 28 30 30 29 30 31 31 31 31 29 29 30 29 28 27 27 26 25 24 23 23 22 22 21 21 20 20 20 19 19 19 18 18 18 18 18 17 17 17 17 16
29 28 28 28 29 27 28 30 30 30 30 31 30 30 29 28 27 27 26 25 25 24 23 22 22 21 21 20 20 20 19 19 19 18 18 18 18 17 17 17 17 17 16 16
30 28 28 28 28 27 28 29 30 29 29 29 29 29 29 27 27 26 25 24 23 23 22 22 21 21 20 20 19 19 19 19 18 18 18 18 17 17 17 17 17 16 16 16
29 29 28 27 27 26 28 29 30 30 28 28 28 28 28 28 26 25 24 23 22 22 21 21 20 20 19 19 19 19 18 18 18 18 17 17 17 17 17 16 16 16 16 15
28 27 27 27 27 27 28 29 30 28 26 27 28 27 27 26 25 24 23 22 21 21 21 20 20 19 19 19 18 18 18 18 17 17 17 17 17 17 17 16 16 16 16 15
28 27 27 27 26 26 28 28 27 25 26 27 26 26 25 24 24 23 22 21 21 20 20 19 19 19 18 18 18 18 17 17 17 17 17 17 17 16 16 16 16 16 15 15
28 27 27 26 26 26 26 25 25 25 26 26 25 25 24 23 23 22 21 20 20 19 19 19 18 18 18 18 17 17 17 17 16 16 16 16 16 16 16 16 16 15 15 15
28 28 27 26 26 26 25 25 25 25 25 24 24 24 23 23 22 21 20 20 19 19 18 18 18 17 17 17 17 17 17 16 16 16 16 16 16 16 16 16 15 15 15 15
26 27 27 26 26 25 25 24 24 24 24 24 23 23 22 22 21 20 19 19 18 18 18 17 17 17 17 16 16 16 16 16 16 15 15 15 15 15 15 15 15 15 15 15
25 25 25 25 24 25 24 24 24 23 23 23 22 22 21 21 20 19 19 18 18 17 17 17 17 16 16 16 16 16 16 15 15 15 15 15 15 15 15 15 15 15 15 15

GEFSCGP_850_meantemp_342.txt.gz
Temperature
28 25 24 25 25 26 26 26 26 26 27 26 24 24 24 24 24 24 23 23 23 23 23 22 22 22 22 21 21 21 20 20 20 20 20 19 19 19 19 19 19 19 19 19
25 25 26 27 28 28 27 26 26 26 27 26 24 24 24 23 24 23 23 23 23 23 23 22 22 22 22 21 21 21 20 20 20 20 20 20 19 19 19 19 19 19 19 19
25 26 28 28 28 28 27 26 26 25 26 25 25 23 23 23 24 24 23 23 23 23 23 23 22 22 22 22 21 21 21 20 20 20 20 20 19 19 19 19 19 19 18 18
26 27 28 28 28 28 26 27 27 27 24 23 24 22 22 22 22 23 23 23 23 23 23 23 23 22 22 22 21 21 21 21 20 20 20 20 20 19 19 19 19 18 18 18
26 27 27 27 28 28 27 28 27 26 24 23 23 22 22 22 22 22 23 23 23 23 23 23 23 23 22 22 22 21 21 21 20 20 20 20 20 19 19 19 19 18 18 18
26 28 28 28 29 29 28 27 25 23 22 23 23 22 22 21 22 23 23 23 23 23 23 23 23 23 22 22 22 22 21 21 20 20 20 20 20 19 19 19 19 19 18 18
26 27 28 29 28 28 27 24 23 23 21 22 22 22 22 23 23 23 23 24 24 23 23 23 23 22 22 22 22 22 21 21 20 20 20 20 20 19 19 19 19 18 18 18
25 25 27 28 27 26 26 24 23 23 22 22 22 22 22 24 24 24 24 24 24 23 23 23 23 23 22 22 22 21 21 21 21 20 20 20 19 19 19 19 18 18 18 18
24 25 27 29 28 27 26 24 23 21 22 22 22 22 22 23 23 23 24 24 24 24 23 23 23 23 22 22 22 22 21 21 21 21 20 20 19 19 19 19 18 18 18 18
25 25 26 28 28 27 26 24 22 22 22 22 22 22 21 22 22 22 23 23 24 23 23 23 23 23 22 22 22 22 21 21 21 21 20 20 19 19 19 19 18 18 18 18
24 24 25 26 26 26 26 25 22 20 21 21 21 22 23 22 22 22 22 24 24 23 23 23 23 23 22 22 22 21 21 21 21 20 20 20 19 19 19 18 18 18 18 18
23 22 22 24 25 26 25 24 22 22 21 20 20 21 24 23 22 23 23 23 23 23 23 23 23 23 22 22 22 21 21 21 20 20 20 19 19 19 18 18 18 18 18 18
24 21 22 23 24 24 25 25 23 20 20 19 20 22 23 22 22 23 23 23 23 23 23 23 22 22 22 22 21 21 21 21 20 20 20 19 19 19 18 18 18 18 18 17
24 20 21 23 23 23 24 25 24 21 20 20 21 22 22 22 21 22 22 22 22 23 22 22 22 22 22 21 21 21 21 20 20 20 19 19 19 19 18 18 18 18 17 17
22 22 23 23 24 25 25 25 24 23 21 21 21 21 21 21 21 21 22 22 22 22 22 22 21 21 21 21 21 21 20 20 20 19 19 19 19 18 18 18 18 17 17 17
20 21 22 23 25 25 25 25 24 24 23 22 22 21 21 21 21 21 21 21 21 21 21 21 21 21 21 20 20 20 20 20 19 19 19 18 18 18 18 17 17 17 17 17
20 20 21 21 23 24 23 24 24 23 23 22 21 21 20 20 21 21 21 21 21 21 21 21 21 21 20 20 20 20 19 19 19 19 18 18 18 18 17 17 17 17 17 16
20 19 18 20 22 23 22 23 24 23 23 22 21 21 20 21 21 21 21 21 20 20 20 20 20 20 20 20 19 19 19 19 18 18 18 18 17 17 17 17 17 16 16 16
20 19 19 18 20 21 22 23 23 22 21 21 21 21 21 21 20 20 20 21 21 21 20 20 20 20 19 19 19 19 19 18 18 18 18 17 17 17 17 17 17 16 16 16
19 19 19 19 21 21 22 23 24 22 20 21 21 20 20 20 18 19 20 20 20 20 20 20 19 19 19 18 18 18 18 18 18 17 17 17 17 17 17 16 16 16 16 15
20 19 19 19 20 20 22 23 23 21 20 21 21 21 21 20 20 20 20 20 20 20 19 19 19 18 18 18 18 18 17 17 17 17 17 17 17 16 16 16 16 16 15 15
19 19 19 18 19 20 22 22 21 20 21 21 21 21 21 21 20 20 20 19 19 19 19 19 18 18 18 17 17 17 17 16 16 16 16 16 16 16 16 16 15 15 15 15
19 19 18 18 19 20 21 22 22 23 22 22 22 21 21 21 20 19 19 19 19 18 18 18 18 17 17 17 17 16 16 16 16 16 16 15 15 15 15 15 15 15 14 14
19 18 17 17 19 19 21 22 22 22 22 22 21 21 21 20 19 19 18 18 18 18 17 17 17 17 16 16 16 16 16 15 15 15 15 15 15 15 15 14 14 14 14 14
18 18 17 17 18 19 20 21 21 22 22 21 21 21 20 20 19 18 18 18 17 17 17 17 16 16 16 16 15 15 15 15 15 15 14 14 14 14 14 14 14 14 14 13
17 17 17 17 18 18 19 20 21 21 21 20 20 20 19 19 19 18 18 17 17 17 16 16 16 16 15 15 15 15 15 14 14 14 14 14 14 14 14 13 13 13 13 13

GEFSCGP_850_meantemp_348.txt.gz
Temperature
24 22 22 23 23 24 24 23 23 23 23 23 22 21 21 21 21 21 21 21 21 21 21 21 21 21 21 20 20 20 20 20 19 19 19 19 19 19 18 18 18 18 18 18
23 23 24 24 24 24 24 23 23 23 23 23 22 22 21 21 21 21 21 21 21 21 21 21 21 21 21 21 21 20 20 20 20 19 19 19 19 19 18 18 18 18 18 18
24 24 25 25 25 24 24 23 23 23 23 22 22 22 21 21 21 21 21 21 22 22 22 22 21 21 21 21 21 20 20 20 20 20 19 19 19 19 19 19 18 18 18 18
23 24 25 25 25 25 24 24 24 23 22 21 22 21 21 20 20 20 21 21 21 22 22 22 22 21 21 21 21 20 20 20 20 20 19 19 19 19 19 18 18 18 18 18
24 24 25 25 25 25 24 24 23 22 21 21 21 21 21 20 20 20 20 21 22 22 22 22 22 21 21 21 21 20 20 20 20 20 19 19 19 19 19 19 18 18 18 18
23 24 25 25 25 25 24 23 21 20 20 21 21 21 21 19 20 21 21 21 22 22 22 22 22 21 21 21 21 20 20 20 20 20 20 19 19 19 19 19 18 18 18 18
24 24 24 25 24 24 23 21 21 21 20 20 20 20 20 21 21 21 21 22 22 22 22 22 22 21 21 21 21 21 20 20 20 20 19 19 19 19 19 18 18 18 18 18
23 23 24 24 24 23 22 22 21 22 21 20 20 20 21 22 22 22 22 22 22 22 22 22 22 22 21 21 21 21 21 20 20 20 20 19 19 19 19 18 18 18 18 18
22 23 24 24 24 23 23 21 20 19 20 20 20 20 21 21 21 21 21 21 21 22 22 22 22 22 22 21 21 21 21 20 20 20 19 19 19 19 18 18 18 18 18 17
22 23 24 24 24 23 22 20 18 19 20 21 21 21 20 21 20 20 20 20 21 22 22 22 22 22 22 22 21 21 20 20 20 20 19 19 19 19 18 18 18 18 17 17
22 22 23 23 23 23 22 20 18 17 19 20 21 21 21 20 20 20 20 21 21 22 22 22 22 22 22 21 21 20 20 20 20 20 19 19 19 19 18 18 18 18 17 17
20 19 20 22 22 23 22 21 19 20 19 18 19 20 21 20 20 20 20 20 21 21 22 22 22 22 21 21 21 20 20 20 20 19 19 19 19 18 18 18 18 17 17 17
20 19 20 22 22 22 22 20 19 17 17 17 19 21 20 19 20 20 20 20 21 21 21 21 21 21 21 21 20 20 20 20 19 19 19 19 18 18 18 18 17 17 17 17
20 18 20 21 21 21 22 21 19 19 18 18 19 20 20 20 19 19 20 20 20 20 21 21 20 20 21 20 20 20 20 19 19 19 19 19 18 18 18 17 17 17 17 16
20 19 20 20 21 22 22 22 20 20 19 19 20 19 20 19 19 19 19 20 20 20 20 20 20 20 20 20 20 20 19 19 19 19 18 18 18 18 17 17 17 17 16 16
17 19 20 21 22 22 22 22 21 21 20 20 20 19 19 19 19 19 19 19 19 20 20 20 20 20 20 20 20 19 19 19 18 18 18 18 17 17 17 17 17 16 16 16
16 18 19 20 21 22 21 21 21 21 20 20 20 20 18 18 18 18 19 19 19 19 20 20 20 20 19 19 19 19 18 18 18 18 17 17 17 17 16 16 16 16 16 16
16 16 16 18 20 21 21 21 21 21 20 20 20 19 19 19 19 19 19 19 19 19 19 19 19 19 19 18 18 18 18 18 17 17 17 17 16 16 16 16 16 16 15 15
15 16 16 16 19 20 21 21 20 20 20 20 19 18 18 19 18 18 19 19 19 19 19 19 19 19 18 18 18 17 17 17 17 17 17 16 16 16 16 16 15 15 15 15
15 15 16 16 19 20 21 21 21 21 20 20 19 18 18 18 17 18 19 19 19 19 19 19 18 18 18 17 17 17 17 17 17 16 16 16 16 16 15 15 15 15 15 14
17 16 16 17 19 19 20 20 21 21 20 20 20 19 19 18 18 19 19 19 19 19 18 18 18 18 17 17 17 16 16 16 16 16 16 15 15 15 15 15 15 14 14 14
17 16 16 16 18 19 19 19 20 20 21 21 20 20 19 19 19 19 18 18 18 18 18 18 18 17 17 16 16 16 16 16 15 15 15 15 15 15 14 14 14 14 14 14
15 16 15 16 17 17 18 19 20 21 21 21 21 20 20 19 19 18 18 18 18 18 17 17 17 17 16 16 16 16 15 15 15 15 15 15 14 14 14 14 14 13 13 13
15 14 14 15 16 17 18 19 20 21 21 21 21 20 20 19 19 18 18 18 18 17 17 17 16 16 16 16 15 15 15 15 15 14 14 14 14 14 13 13 13 13 13 13
15 14 14 15 16 17 18 19 20 20 21 21 20 20 20 20 19 18 18 17 17 17 16 16 16 16 15 15 15 15 14 14 14 14 14 14 13 13 13 13 13 13 12 12
14 14 15 16 16 16 18 19 20 20 20 20 20 19 19 19 19 18 17 17 17 16 16 16 15 15 15 15 14 14 14 14 14 14 13 13 13 13 12 12 12 12 12 12

GEFSCGP_850_meantemp_354.txt.gz
Temperature
29 30 31 31 31 31 31 31 31 30 30 30 30 29 29 27 27 27 26 26 25 24 23 22 22 21 21 20 20 20 19 19 19 19 19 19 18 18 18 18 18 18 18 18
30 30 31 31 31 31 31 31 31 30 30 30 29 29 29 28 27 27 26 26 25 24 23 22 22 21 21 20 20 20 20 19 19 19 19 19 19 18 18 18 18 18 18 18
30 31 31 31 31 31 31 31 31 30 30 30 29 29 28 28 27 27 26 26 25 24 24 23 22 21 21 20 20 20 20 20 19 19 19 19 19 19 19 18 18 18 18 18
30 31 30 30 30 31 30 31 30 30 30 30 30 29 29 29 28 28 27 26 26 25 24 23 22 21 21 21 20 20 20 20 20 19 19 19 19 19 18 18 18 18 18 18
30 30 30 30 30 31 30 30 30 30 30 30 30 30 30 29 28 28 27 26 26 25 24 23 22 22 21 21 20 20 20 20 20 20 19 19 19 19 18 18 18 18 18 18
30 30 30 30 30 30 30 30 30 30 31 29 30 30 30 29 29 29 28 26 25 25 24 23 22 21 21 21 20 20 20 20 20 19 19 19 19 19 18 18 18 18 18 18
29 30 30 30 30 30 30 30 29 29 29 30 30 30 30 29 29 29 28 27 26 25 24 23 22 21 21 21 20 20 20 19 19 19 19 19 19 18 18 18 18 18 18 18
29 29 30 30 30 30 30 31 29 29 29 30 30 30 30 29 28 27 27 26 25 25 24 23 22 21 21 21 20 20 19 19 19 19 19 19 19 18 18 18 18 18 18 17
30 30 30 30 30 31 30 30 31 30 30 30 30 30 30 29 28 28 27 26 25 25 24 23 22 21 21 21 20 20 19 19 19 19 19 19 19 18 18 18 18 18 17 17
30 29 30 30 30 30 30 31 30 30 28 29 29 30 30 28 28 28 27 26 25 24 23 23 22 21 21 20 20 20 19 19 19 19 19 18 18 18 18 18 18 18 17 17
30 29 29 29 29 30 30 30 30 30 29 29 29 30 30 29 28 28 27 26 25 24 24 23 22 21 20 20 20 20 19 19 19 19 19 18 18 18 18 18 17 17 17 17
29 30 29 29 30 30 30 30 30 29 28 29 29 29 29 29 28 28 27 25 25 24 23 23 22 21 21 20 20 20 19 19 19 18 18 18 18 18 17 17 17 17 17 17
29 29 28 28 29 29 29 30 30 30 30 29 29 29 29 28 28 27 26 25 24 23 23 22 21 21 20 20 20 19 19 19 19 18 18 18 18 17 17 17 17 17 16 16
28 29 28 28 29 29 29 29 29 29 29 29 29 29 29 28 27 26 25 24 23 23 22 21 21 20 20 19 19 19 19 19 18 18 18 18 17 17 17 17 16 16 16 16
28 28 28 29 29 29 29 29 29 29 30 29 29 29 29 28 27 26 24 24 23 23 22 21 20 20 20 19 19 19 19 18 18 18 18 17 17 17 17 16 16 16 16 16
27 27 28 28 29 29 28 29 29 29 29 29 29 29 29 28 27 25 24 23 23 22 22 21 20 19 19 19 19 18 18 18 17 17 17 17 17 16 16 16 16 16 16 15
27 26 27 28 28 28 28 29 29 29 29 29 29 29 28 27 26 24 23 23 22 22 21 20 20 19 18 18 18 18 17 17 17 17 17 16 16 16 16 16 15 15 15 15
26 26 27 28 27 26 29 29 29 29 29 29 29 29 28 27 25 24 23 22 22 21 20 20 19 19 18 18 17 17 17 16 16 16 16 16 16 15 15 15 15 15 15 15
25 25 27 27 27 27 28 28 28 28 28 28 28 28 27 25 24 24 22 21 21 20 19 19 19 18 18 17 17 17 16 16 16 15 15 15 15 15 15 15 15 14 14 14
25 25 26 26 26 26 28 28 27 28 27 27 27 27 26 25 26 25 22 20 20 19 19 18 18 18 17 17 16 16 16 16 15 15 15 15 15 15 15 14 14 14 14 14
25 25 25 26 26 27 28 27 27 26 27 26 26 25 25 25 25 23 21 20 19 18 18 18 17 17 17 16 16 16 16 15 15 15 14 14 14 14 14 14 14 13 13 13
25 26 25 25 25 26 26 26 26 26 25 25 25 25 24 23 22 21 20 19 18 18 17 17 17 17 16 16 16 16 15 15 14 14 14 14 14 14 14 13 13 13 13 13
25 25 26 26 26 24 24 24 24 23 23 23 24 23 23 22 21 20 19 18 18 17 17 17 16 16 16 15 15 15 15 14 14 14 14 14 13 13 13 13 13 13 13 13
24 22 24 24 25 24 23 23 22 22 22 22 22 22 22 21 20 19 18 17 17 17 16 16 16 16 15 15 15 14 14 14 14 13 13 13 13 13 13 13 13 13 13 13
23 23 23 23 23 23 22 22 21 21 21 21 21 21 21 20 19 18 18 17 16 16 16 16 15 15 15 14 14 14 14 14 13 13 13 13 13 13 13 12 12 12 12 12
23 23 23 23 23 23 22 21 21 21 20 20 20 20 19 19 18 18 17 16 16 16 16 15 15 15 14 14 13 13 13 13 13 13 13 13 13 13 12 12 12 12 12 11

GEFSCGP_850_meantemp_360.txt.gz
Temperature
32 31 31 31 33 33 33 32 32 32 33 33 32 31 31 30 30 30 29 28 27 26 26 25 24 23 22 21 21 21 21 20 20 20 20 19 19 19 19 19 19 19 19 19
32 31 32 33 34 34 33 32 32 33 33 33 32 31 31 30 30 29 29 28 27 26 26 25 24 23 22 22 21 21 21 20 20 20 20 20 19 19 19 19 19 19 19 19
31 32 34 33 33 33 33 32 32 32 33 33 32 31 30 29 29 29 29 29 28 27 26 25 24 23 23 22 21 21 21 20 20 20 20 20 19 19 19 19 19 19 19 19
32 33 33 33 33 33 32 33 33 32 32 31 31 29 29 29 29 29 29 29 28 27 26 25 24 23 23 22 21 21 21 20 20 20 20 19 19 19 19 19 19 19 19 19
32 33 33 33 33 33 33 33 33 32 31 30 30 30 29 29 28 29 30 29 29 27 27 26 25 24 23 22 22 21 21 20 20 20 19 19 19 19 19 19 19 19 19 19
33 34 34 33 34 34 34 33 32 31 30 28 29 30 29 29 29 30 30 29 28 28 27 26 25 24 23 22 22 21 21 20 20 20 19 19 19 19 19 19 19 19 19 19
32 33 33 34 33 33 33 31 29 28 28 28 30 30 30 31 31 31 30 29 28 27 26 25 25 24 23 22 22 21 21 20 20 20 20 19 19 19 19 19 19 19 19 18
31 30 32 33 33 32 32 31 29 28 27 29 30 29 30 31 32 31 30 29 28 27 26 26 25 24 23 22 22 21 21 20 20 20 19 19 19 19 19 19 19 19 18 18
30 30 32 33 34 33 32 32 32 30 29 29 30 29 29 30 31 31 30 29 28 27 26 25 25 24 23 23 22 21 20 20 20 19 19 19 19 19 19 19 19 18 18 18
31 30 32 33 34 34 34 33 32 31 28 28 28 28 28 28 29 30 30 29 28 27 26 25 24 24 23 23 22 21 20 20 20 19 19 19 19 19 19 19 18 18 18 18
32 31 31 32 32 32 33 32 32 31 30 28 27 28 30 29 30 29 30 29 28 27 26 25 24 24 23 22 22 21 21 20 20 19 19 19 18 18 18 18 18 18 18 18
32 31 30 31 33 33 33 32 32 30 29 29 28 28 30 30 30 30 30 29 28 27 26 25 24 23 23 22 22 21 21 20 20 19 19 19 18 18 18 18 18 17 17 17
31 30 28 29 31 32 32 32 32 31 30 29 28 28 30 30 30 30 29 28 27 26 26 25 24 23 22 22 21 21 21 20 20 19 19 18 18 18 18 17 17 17 17 17
30 29 28 28 29 30 30 31 32 31 29 29 29 29 29 29 29 29 28 28 27 26 25 24 23 22 22 21 21 20 20 20 20 19 19 18 18 17 17 17 17 17 17 16
31 28 28 29 30 30 31 31 31 31 30 30 30 29 29 29 29 28 28 27 27 26 25 24 23 22 21 21 20 20 20 19 19 19 18 18 17 17 17 16 17 17 16 16
30 28 28 28 29 31 31 31 31 31 31 31 30 30 30 30 29 28 27 27 26 26 25 23 22 21 21 20 20 19 19 19 18 18 18 17 17 17 16 16 16 16 16 16
29 28 27 28 29 30 29 31 31 31 31 31 30 30 30 30 29 28 27 26 25 25 24 23 22 21 20 20 19 19 19 18 18 17 17 17 16 16 16 16 16 16 16 15
28 27 27 28 28 27 30 32 32 31 31 31 30 30 30 29 28 27 26 25 24 24 23 22 22 21 20 19 19 18 18 18 17 17 17 16 16 16 16 16 15 15 15 15
29 27 27 27 27 28 30 31 31 30 30 30 30 29 29 29 27 26 25 24 23 23 22 21 21 20 20 19 18 18 18 17 17 17 16 16 16 16 15 15 15 14 14 14
28 28 27 26 26 26 28 31 31 30 28 30 30 29 29 28 27 26 24 24 23 22 22 21 20 20 19 18 18 18 18 17 17 16 16 16 15 15 15 15 14 14 14 14
27 26 26 26 26 27 29 30 30 28 27 28 29 28 28 27 26 25 24 23 22 21 21 20 20 19 19 18 18 17 17 17 16 16 15 15 15 15 15 15 14 14 14 14
26 26 26 26 25 26 28 29 28 27 27 28 28 27 27 26 25 24 23 22 21 21 20 20 19 19 18 17 17 17 16 16 16 15 15 15 15 14 14 14 14 14 14 14
27 26 26 26 26 26 27 27 26 26 26 26 26 26 26 25 24 23 22 21 21 20 20 19 19 18 17 17 17 16 16 16 15 15 15 15 14 14 14 14 14 14 14 14
26 26 26 25 26 26 26 26 26 26 26 26 25 25 25 24 23 22 22 21 20 20 19 19 18 17 17 16 16 16 16 15 15 15 14 14 14 14 14 14 14 13 13 13
25 25 25 24 25 25 25 25 25 25 25 25 25 25 24 23 23 22 21 20 20 19 19 18 17 17 16 16 16 15 15 15 14 14 14 14 14 14 14 14 14 13 13 13
24 24 24 24 24 24 24 24 24 24 24 24 24 24 23 23 22 21 20 19 19 18 18 17 17 16 16 15 15 15 14 14 14 14 14 14 14 14 14 13 13 13 13 13